TimeEDT,TemperatureF,Dew PointF,Humidity,Sea Level PressureIn,VisibilityMPH,Wind Direction,Wind SpeedMPH,Gust SpeedMPH,PrecipitationIn,Events,Conditions,WindDirDegrees,DateUTC
12:33 AM,55.4,55.4,100,30.05,8.0,SSE,6.9,-,N/A,,Mostly Cloudy,150,2013-04-19 04:33:00
12:54 AM,55.9,55.9,100,30.05,9.0,SSE,8.1,-,N/A,,Overcast,150,2013-04-19 04:54:00
1:05 AM,55.4,55.4,100,30.05,10.0,SSE,6.9,-,N/A,,Overcast,160,2013-04-19 05:05:00
1:54 AM,57.0,55.9,96,30.03,10.0,Variable,6.9,-,N/A,,Overcast,0,2013-04-19 05:54:00
2:24 AM,57.2,57.2,100,30.01,10.0,SSE,5.8,-,N/A,,Overcast,150,2013-04-19 06:24:00
2:54 AM,57.9,57.0,97,29.99,10.0,SSE,5.8,-,N/A,,Overcast,160,2013-04-19 06:54:00
3:54 AM,57.9,57.0,97,29.99,10.0,South,4.6,-,N/A,,Overcast,170,2013-04-19 07:54:00
4:54 AM,59.0,57.0,93,29.96,10.0,SSE,6.9,-,N/A,,Overcast,160,2013-04-19 08:54:00
5:54 AM,60.1,57.9,93,29.93,10.0,South,5.8,-,N/A,,Overcast,170,2013-04-19 09:54:00
6:54 AM,61.0,57.9,90,29.95,10.0,SSW,6.9,-,N/A,,Overcast,200,2013-04-19 10:54:00
7:54 AM,61.0,57.9,90,29.94,10.0,South,6.9,-,N/A,,Overcast,190,2013-04-19 11:54:00
8:54 AM,62.1,59.0,90,29.92,10.0,South,5.8,-,0.00,,Overcast,190,2013-04-19 12:54:00
9:14 AM,62.6,60.8,94,29.92,-9999.0,Variable,5.8,-,0.00,,Unknown,0,2013-04-19 13:14:00
9:45 AM,62.6,60.8,94,29.90,10.0,South,10.4,-,0.01,,Overcast,190,2013-04-19 13:45:00
9:54 AM,63.0,60.1,90,29.90,10.0,South,8.1,-,0.01,,Overcast,180,2013-04-19 13:54:00
10:54 AM,66.0,61.0,84,29.87,10.0,SSW,9.2,16.1,N/A,,Overcast,210,2013-04-19 14:54:00
11:54 AM,64.9,63.0,93,29.84,10.0,South,8.1,-,0.00,Rain,Light Rain,170,2013-04-19 15:54:00
12:09 PM,68.0,64.4,88,29.84,10.0,South,10.4,20.7,0.00,,Mostly Cloudy,190,2013-04-19 16:09:00
12:54 PM,69.1,63.0,81,29.82,10.0,South,9.2,18.4,0.00,,Overcast,180,2013-04-19 16:54:00
1:23 PM,71.6,62.6,73,29.80,10.0,South,11.5,18.4,N/A,,Overcast,170,2013-04-19 17:23:00
1:54 PM,71.1,62.1,73,29.79,10.0,South,10.4,20.7,N/A,,Overcast,190,2013-04-19 17:54:00
2:54 PM,73.9,62.1,66,29.72,10.0,South,13.8,27.6,N/A,,Mostly Cloudy,170,2013-04-19 18:54:00
3:54 PM,73.9,62.1,66,29.68,10.0,South,12.7,26.5,N/A,,Mostly Cloudy,170,2013-04-19 19:54:00
5:54 PM,73.9,61.0,64,29.65,10.0,South,9.2,24.2,N/A,,Mostly Cloudy,190,2013-04-19 21:54:00
6:54 PM,72.0,62.1,71,29.63,10.0,SSE,13.8,21.9,N/A,,Overcast,160,2013-04-19 22:54:00
7:54 PM,71.1,62.1,73,29.60,10.0,SSE,11.5,23.0,N/A,,Mostly Cloudy,160,2013-04-19 23:54:00
8:54 PM,70.0,63.0,78,29.63,10.0,South,13.8,20.7,0.00,Rain,Light Rain,170,2013-04-20 00:54:00
9:14 PM,66.2,62.6,88,29.66,10.0,West,13.8,19.6,0.03,Rain,Light Rain,280,2013-04-20 01:14:00
9:38 PM,62.6,60.8,94,29.71,2.5,West,11.5,21.9,0.21,Rain,Heavy Rain,260,2013-04-20 01:38:00
9:46 PM,60.8,60.8,100,29.69,1.5,WNW,9.2,-,0.35,Rain,Heavy Rain,290,2013-04-20 01:46:00
9:54 PM,61.0,60.1,97,29.71,2.5,SW,3.5,-,0.41,Rain,Heavy Rain,220,2013-04-20 01:54:00
10:01 PM,60.8,60.8,100,29.70,5.0,West,8.1,-,0.02,Rain,Rain,280,2013-04-20 02:01:00
10:10 PM,60.8,60.8,100,29.70,5.0,West,6.9,-,0.06,Rain,Rain,270,2013-04-20 02:10:00
10:48 PM,60.8,60.8,100,29.69,8.0,Variable,5.8,-,0.13,Rain,Rain,0,2013-04-20 02:48:00
10:54 PM,57.9,55.9,93,29.68,8.0,NW,17.3,29.9,0.14,Rain,Light Rain,320,2013-04-20 02:54:00
11:02 PM,55.4,53.6,94,29.70,10.0,NW,10.4,24.2,0.01,Rain,Light Rain,310,2013-04-20 03:02:00
11:21 PM,55.4,53.6,94,29.74,10.0,West,10.4,18.4,0.03,Rain,Light Rain,270,2013-04-20 03:21:00
11:54 PM,52.0,48.9,89,29.72,9.0,NW,11.5,21.9,0.10,Rain,Rain,320,2013-04-20 03:54:00